Time,TemperatureF,DewpointF,PressureIn,WindDirection,WindDirectionDegrees,WindSpeedMPH,WindSpeedGustMPH,Humidity,HourlyPrecipIn,Conditions,Clouds,dailyrainin,SoftwareType,DateUTC
2013-02-11 00:00:00,35.8,33.4,28.88,East,90,0.0,3.0,91,0.04,,,0.12,meteohub,2013-02-11 05:00:00,
2013-02-11 00:05:00,35.8,33.4,28.88,East,90,1.0,3.0,91,0.00,,,0.00,meteohub,2013-02-11 05:05:00,
2013-02-11 00:10:00,35.8,33.4,28.88,East,90,0.0,2.0,91,0.00,,,0.00,meteohub,2013-02-11 05:10:00,
2013-02-11 00:15:00,35.8,33.4,28.88,East,90,0.0,2.0,91,0.00,,,0.00,meteohub,2013-02-11 05:15:00,
2013-02-11 00:20:00,35.6,33.3,28.88,ESE,112,0.0,2.0,91,0.05,,,0.05,meteohub,2013-02-11 05:20:00,
2013-02-11 00:25:00,35.6,33.3,28.88,ESE,112,0.0,1.0,91,0.05,,,0.05,meteohub,2013-02-11 05:25:00,
2013-02-11 00:45:00,35.4,33.1,28.88,ESE,112,0.0,0.0,91,0.05,,,0.05,meteohub,2013-02-11 05:45:00,
2013-02-11 00:50:00,35.4,33.1,28.88,ESE,112,0.0,0.0,91,0.05,,,0.05,meteohub,2013-02-11 05:50:00,
2013-02-11 01:31:00,36.5,34.7,28.82,NE,45,0.0,2.0,93,0.00,,,0.05,meteohub,2013-02-11 06:31:00,
2013-02-11 01:36:00,36.5,34.7,28.82,SE,135,0.0,2.0,93,0.00,,,0.05,meteohub,2013-02-11 06:36:00,
2013-02-11 01:47:00,37.4,36.1,28.79,ENE,68,0.0,3.0,95,0.00,,,0.05,meteohub,2013-02-11 06:47:00,
2013-02-11 01:52:00,37.4,36.1,28.79,NW,315,1.0,3.0,95,0.00,,,0.05,meteohub,2013-02-11 06:52:00,
2013-02-11 01:57:00,37.9,36.9,28.82,ESE,112,1.0,3.0,96,0.00,,,0.05,meteohub,2013-02-11 06:57:00,
2013-02-11 02:02:00,37.9,36.9,28.82,NE,45,1.0,3.0,96,0.00,,,0.05,meteohub,2013-02-11 07:02:00,
2013-02-11 02:07:00,38.1,37.0,28.82,SE,135,1.0,2.0,96,0.00,,,0.05,meteohub,2013-02-11 07:07:00,
2013-02-11 02:12:00,38.5,37.8,28.82,SSE,158,1.0,2.0,97,0.00,,,0.05,meteohub,2013-02-11 07:12:00,
2013-02-11 02:17:00,38.5,37.8,28.82,East,90,1.0,3.0,97,0.00,,,0.05,meteohub,2013-02-11 07:17:00,
2013-02-11 02:22:00,38.7,37.9,28.82,North,0,0.0,3.0,97,0.00,,,0.05,meteohub,2013-02-11 07:22:00,
2013-02-11 02:27:00,38.7,37.9,28.79,NNE,22,2.0,3.0,97,0.04,,,0.09,meteohub,2013-02-11 07:27:00,
2013-02-11 02:32:00,39.0,38.3,28.79,SW,225,2.0,2.0,97,0.04,,,0.09,meteohub,2013-02-11 07:32:00,
2013-02-11 02:37:00,39.0,38.5,28.79,ESE,112,1.0,4.0,98,0.04,,,0.09,meteohub,2013-02-11 07:37:00,
2013-02-11 02:42:00,39.0,38.5,28.79,ESE,112,1.0,4.0,98,0.04,,,0.09,meteohub,2013-02-11 07:42:00,
2013-02-11 02:47:00,39.2,38.5,28.79,West,270,2.0,6.0,97,0.04,,,0.09,meteohub,2013-02-11 07:47:00,
2013-02-11 02:52:00,39.4,38.7,28.79,East,90,2.0,6.0,97,0.04,,,0.09,meteohub,2013-02-11 07:52:00,
2013-02-11 02:57:00,39.6,39.0,28.79,ESE,112,1.0,4.0,98,0.04,,,0.09,meteohub,2013-02-11 07:57:00,
2013-02-11 03:02:00,39.7,39.2,28.79,East,90,2.0,4.0,98,0.04,,,0.09,meteohub,2013-02-11 08:02:00,
2013-02-11 03:07:00,39.7,39.2,28.79,West,270,1.0,4.0,98,0.04,,,0.09,meteohub,2013-02-11 08:07:00,
2013-02-11 03:12:00,39.7,39.2,28.79,South,180,1.0,4.0,98,0.04,,,0.09,meteohub,2013-02-11 08:12:00,
2013-02-11 03:17:00,39.7,39.2,28.79,West,270,1.0,4.0,98,0.04,,,0.09,meteohub,2013-02-11 08:17:00,
2013-02-11 03:22:00,39.9,39.4,28.79,SW,225,3.0,3.0,98,0.00,,,0.09,meteohub,2013-02-11 08:22:00,
2013-02-11 03:27:00,39.9,39.4,28.79,WSW,248,0.0,4.0,98,0.00,,,0.09,meteohub,2013-02-11 08:27:00,
2013-02-11 03:53:00,40.5,39.9,28.79,SW,225,1.0,-999.0,98,0.04,,,0.13,meteohub,2013-02-11 08:53:00,
2013-02-11 03:58:00,40.5,39.9,28.76,SSW,202,1.0,0.0,98,0.04,,,0.13,meteohub,2013-02-11 08:58:00,
2013-02-11 04:34:00,40.6,40.1,28.76,SSE,158,0.0,1.0,98,0.00,,,0.13,meteohub,2013-02-11 09:34:00,
2013-02-11 04:39:00,40.6,40.1,28.76,SSE,158,1.0,0.0,98,0.00,,,0.13,meteohub,2013-02-11 09:39:00,
2013-02-11 04:44:00,40.6,40.1,28.76,SSE,158,2.0,4.0,98,0.00,,,0.13,meteohub,2013-02-11 09:44:00,
2013-02-11 04:49:00,40.8,40.3,28.76,WSW,248,1.0,4.0,98,0.00,,,0.13,meteohub,2013-02-11 09:49:00,
2013-02-11 04:54:00,40.8,40.3,28.76,North,0,1.0,4.0,98,0.00,,,0.13,meteohub,2013-02-11 09:54:00,
2013-02-11 04:59:00,40.8,40.3,28.76,SSW,202,1.0,3.0,98,0.04,,,0.17,meteohub,2013-02-11 09:59:00,
2013-02-11 05:04:00,41.0,40.5,28.76,SE,135,2.0,3.0,98,0.04,,,0.17,meteohub,2013-02-11 10:04:00,
2013-02-11 05:09:00,40.8,40.3,28.76,East,90,0.0,3.0,98,0.04,,,0.17,meteohub,2013-02-11 10:09:00,
2013-02-11 05:14:00,40.8,40.3,28.73,NE,45,3.0,3.0,98,0.04,,,0.17,meteohub,2013-02-11 10:14:00,
2013-02-11 05:19:00,40.8,40.3,28.73,NE,45,2.0,3.0,98,0.04,,,0.17,meteohub,2013-02-11 10:19:00,
2013-02-11 05:24:00,40.8,40.3,28.73,ESE,112,2.0,3.0,98,0.04,,,0.17,meteohub,2013-02-11 10:24:00,
2013-02-11 05:29:00,40.8,40.3,28.73,South,180,2.0,3.0,98,0.04,,,0.17,meteohub,2013-02-11 10:29:00,
2013-02-11 05:34:00,40.8,40.3,28.73,West,270,2.0,2.0,98,0.04,,,0.17,meteohub,2013-02-11 10:34:00,
2013-02-11 05:39:00,41.0,40.5,28.70,NW,315,1.0,4.0,98,0.04,,,0.17,meteohub,2013-02-11 10:39:00,
2013-02-11 05:44:00,41.0,40.5,28.70,SW,225,1.0,4.0,98,0.04,,,0.17,meteohub,2013-02-11 10:44:00,
2013-02-11 05:49:00,41.2,40.6,28.70,West,270,2.0,4.0,98,0.04,,,0.17,meteohub,2013-02-11 10:49:00,
2013-02-11 05:54:00,41.2,40.6,28.70,SE,135,0.0,4.0,98,0.04,,,0.17,meteohub,2013-02-11 10:54:00,
2013-02-11 05:59:00,41.2,40.6,28.70,SSW,202,3.0,4.0,98,0.00,,,0.17,meteohub,2013-02-11 10:59:00,
2013-02-11 06:04:00,41.2,40.6,28.70,ENE,68,0.0,4.0,98,0.00,,,0.17,meteohub,2013-02-11 11:04:00,
2013-02-11 06:09:00,41.2,40.6,28.70,South,180,3.0,4.0,98,0.00,,,0.17,meteohub,2013-02-11 11:09:00,
2013-02-11 06:14:00,41.2,40.6,28.70,SW,225,2.0,4.0,98,0.00,,,0.17,meteohub,2013-02-11 11:14:00,
2013-02-11 06:19:00,41.5,41.0,28.70,West,270,6.0,6.0,98,0.00,,,0.17,meteohub,2013-02-11 11:19:00,
2013-02-11 06:24:00,41.7,41.2,28.73,SW,225,13.0,13.0,98,0.00,,,0.17,meteohub,2013-02-11 11:24:00,
2013-02-11 06:29:00,40.8,40.3,28.73,West,270,8.0,8.0,98,0.04,,,0.21,meteohub,2013-02-11 11:29:00,
2013-02-11 06:35:00,40.6,40.1,28.73,West,270,8.0,13.0,98,0.04,,,0.21,meteohub,2013-02-11 11:35:00,
2013-02-11 06:40:00,40.5,39.4,28.73,SW,225,8.0,13.0,96,0.04,,,0.21,meteohub,2013-02-11 11:40:00,
2013-02-11 06:45:00,40.5,39.4,28.70,SW,225,3.0,11.0,96,0.04,,,0.21,meteohub,2013-02-11 11:45:00,
2013-02-11 06:50:00,40.3,39.2,28.70,South,180,8.0,11.0,96,0.04,,,0.21,meteohub,2013-02-11 11:50:00,
2013-02-11 06:55:00,40.5,39.7,28.70,SW,225,3.0,11.0,97,0.08,,,0.25,meteohub,2013-02-11 11:55:00,
2013-02-11 07:00:00,40.5,39.7,28.70,WSW,248,3.0,8.0,97,0.08,,,0.25,meteohub,2013-02-11 12:00:00,
2013-02-11 07:05:00,40.5,39.7,28.70,SW,225,2.0,8.0,97,0.08,,,0.25,meteohub,2013-02-11 12:05:00,
2013-02-11 07:10:00,40.3,39.6,28.70,WSW,248,3.0,6.0,97,0.08,,,0.25,meteohub,2013-02-11 12:10:00,
2013-02-11 07:15:00,40.3,39.6,28.70,West,270,5.0,7.0,97,0.08,,,0.25,meteohub,2013-02-11 12:15:00,
2013-02-11 07:20:00,40.8,37.2,28.70,SW,225,6.0,13.0,87,0.08,,,0.25,meteohub,2013-02-11 12:20:00,
2013-02-11 07:25:00,40.8,37.0,28.73,West,270,4.0,13.0,86,0.04,,,0.25,meteohub,2013-02-11 12:25:00,
2013-02-11 07:30:00,41.0,36.9,28.73,SW,225,3.0,13.0,85,0.04,,,0.25,meteohub,2013-02-11 12:30:00,
2013-02-11 07:35:00,40.6,36.9,28.73,WSW,248,5.0,9.0,86,0.04,,,0.25,meteohub,2013-02-11 12:35:00,
2013-02-11 07:40:00,41.0,37.2,28.70,SW,225,4.0,8.0,86,0.04,,,0.25,meteohub,2013-02-11 12:40:00,
2013-02-11 07:45:00,41.0,36.9,28.70,SW,225,7.0,8.0,85,0.00,,,0.25,meteohub,2013-02-11 12:45:00,
2013-02-11 07:50:00,41.2,36.1,28.70,SSW,202,6.0,8.0,82,0.00,,,0.25,meteohub,2013-02-11 12:50:00,
2013-02-11 07:55:00,41.2,34.2,28.73,WNW,292,4.0,11.0,76,0.00,,,0.25,meteohub,2013-02-11 12:55:00,
2013-02-11 08:00:00,41.2,33.3,28.73,WSW,248,6.0,11.0,73,0.00,,,0.25,meteohub,2013-02-11 13:00:00,
2013-02-11 08:05:00,41.4,31.6,28.73,WSW,248,8.0,14.0,68,0.00,,,0.25,meteohub,2013-02-11 13:05:00,
2013-02-11 08:10:00,41.2,31.5,28.73,WSW,248,10.0,14.0,68,0.00,,,0.25,meteohub,2013-02-11 13:10:00,
2013-02-11 08:15:00,41.2,29.1,28.73,SW,225,8.0,14.0,62,0.00,,,0.25,meteohub,2013-02-11 13:15:00,
2013-02-11 08:20:00,41.2,28.0,28.73,West,270,7.0,11.0,59,0.00,,,0.25,meteohub,2013-02-11 13:20:00,
2013-02-11 08:25:00,41.0,27.9,28.73,SW,225,5.0,11.0,59,0.00,,,0.25,meteohub,2013-02-11 13:25:00,
2013-02-11 08:30:00,41.2,26.8,28.73,WSW,248,6.0,11.0,56,0.00,,,0.25,meteohub,2013-02-11 13:30:00,
2013-02-11 08:35:00,41.0,25.2,28.73,SW,225,9.0,11.0,53,0.00,,,0.25,meteohub,2013-02-11 13:35:00,
2013-02-11 08:40:00,41.0,25.2,28.70,SSW,202,13.0,13.0,53,0.00,,,0.25,meteohub,2013-02-11 13:40:00,
2013-02-11 08:45:00,41.0,24.8,28.70,West,270,10.0,14.0,52,0.00,,,0.25,meteohub,2013-02-11 13:45:00,
2013-02-11 08:50:00,41.2,25.3,28.70,SSW,202,8.0,14.0,53,0.00,,,0.25,meteohub,2013-02-11 13:50:00,
2013-02-11 08:55:00,41.2,25.0,28.70,SSW,202,8.0,14.0,52,0.00,,,0.25,meteohub,2013-02-11 13:55:00,
2013-02-11 09:00:00,40.8,25.5,28.73,SW,225,9.0,14.0,54,0.00,,,0.25,meteohub,2013-02-11 14:00:00,
2013-02-11 09:05:00,40.8,25.5,28.73,SW,225,7.0,12.0,54,0.00,,,0.25,meteohub,2013-02-11 14:05:00,
2013-02-11 09:10:00,40.8,25.5,28.73,West,270,8.0,12.0,54,0.00,,,0.25,meteohub,2013-02-11 14:10:00,
2013-02-11 09:15:00,40.5,25.2,28.73,WSW,248,9.0,13.0,54,0.00,,,0.25,meteohub,2013-02-11 14:15:00,
2013-02-11 09:20:00,40.3,25.5,28.73,SE,135,10.0,13.0,55,0.00,,,0.25,meteohub,2013-02-11 14:20:00,
2013-02-11 09:25:00,40.3,25.5,28.73,SW,225,6.0,13.0,55,0.00,,,0.25,meteohub,2013-02-11 14:25:00,
2013-02-11 09:30:00,39.9,25.5,28.73,West,270,13.0,13.0,56,0.00,,,0.25,meteohub,2013-02-11 14:30:00,
2013-02-11 09:35:00,39.7,25.9,28.73,SW,225,10.0,13.0,57,0.00,,,0.25,meteohub,2013-02-11 14:35:00,
2013-02-11 09:40:00,39.7,25.3,28.73,SSW,202,6.0,13.0,56,0.00,,,0.25,meteohub,2013-02-11 14:40:00,
2013-02-11 09:45:00,39.7,25.3,28.73,West,270,10.0,17.0,56,0.00,,,0.25,meteohub,2013-02-11 14:45:00,
2013-02-11 09:50:00,39.7,25.3,28.73,SW,225,6.0,17.0,56,0.00,,,0.25,meteohub,2013-02-11 14:50:00,
2013-02-11 09:55:00,39.7,24.4,28.76,SW,225,11.0,17.0,54,0.00,,,0.25,meteohub,2013-02-11 14:55:00,
2013-02-11 10:00:00,39.6,23.9,28.76,WNW,292,23.0,23.0,53,0.00,,,0.25,meteohub,2013-02-11 15:00:00,
2013-02-11 10:05:00,39.4,23.2,28.76,WSW,248,9.0,23.0,52,0.00,,,0.25,meteohub,2013-02-11 15:05:00,
2013-02-11 10:10:00,39.0,23.0,28.76,West,270,4.0,23.0,52,0.00,,,0.25,meteohub,2013-02-11 15:10:00,
2013-02-11 10:15:00,38.8,22.8,28.76,South,180,7.0,15.0,52,0.00,,,0.25,meteohub,2013-02-11 15:15:00,
2013-02-11 10:21:00,38.8,23.2,28.76,West,270,6.0,24.0,53,0.00,,,0.25,meteohub,2013-02-11 15:21:00,
2013-02-11 10:26:00,38.8,22.8,28.76,South,180,6.0,24.0,52,0.00,,,0.25,meteohub,2013-02-11 15:26:00,
2013-02-11 10:31:00,38.8,22.8,28.76,WSW,248,9.0,18.0,52,0.00,,,0.25,meteohub,2013-02-11 15:31:00,
2013-02-11 10:36:00,38.7,23.0,28.76,West,270,11.0,15.0,53,0.00,,,0.25,meteohub,2013-02-11 15:36:00,
2013-02-11 10:41:00,38.5,22.8,28.79,NW,315,11.0,17.0,53,0.00,,,0.25,meteohub,2013-02-11 15:41:00,
2013-02-11 10:46:00,38.1,23.0,28.79,West,270,8.0,17.0,54,0.00,,,0.25,meteohub,2013-02-11 15:46:00,
2013-02-11 10:51:00,37.8,22.6,28.79,West,270,18.0,18.0,54,0.00,,,0.25,meteohub,2013-02-11 15:51:00,
2013-02-11 10:56:00,37.2,22.6,28.76,WNW,292,19.0,19.0,55,0.00,,,0.25,meteohub,2013-02-11 15:56:00,
2013-02-11 11:01:00,37.0,22.5,28.76,West,270,11.0,19.0,55,0.00,,,0.25,meteohub,2013-02-11 16:01:00,
2013-02-11 11:06:00,36.7,22.5,28.76,SW,225,13.0,19.0,56,0.00,,,0.25,meteohub,2013-02-11 16:06:00,
2013-02-11 11:11:00,36.7,22.5,28.76,WSW,248,6.0,19.0,56,0.00,,,0.25,meteohub,2013-02-11 16:11:00,
2013-02-11 11:16:00,36.3,21.7,28.76,West,270,13.0,18.0,55,0.00,,,0.25,meteohub,2013-02-11 16:16:00,
2013-02-11 11:21:00,36.3,21.7,28.76,West,270,9.0,22.0,55,0.00,,,0.25,meteohub,2013-02-11 16:21:00,
2013-02-11 11:26:00,36.3,21.7,28.76,SW,225,9.0,22.0,55,0.00,,,0.25,meteohub,2013-02-11 16:26:00,
2013-02-11 11:31:00,36.3,22.1,28.76,West,270,10.0,22.0,56,0.00,,,0.25,meteohub,2013-02-11 16:31:00,
2013-02-11 11:36:00,36.1,21.6,28.76,WSW,248,6.0,15.0,55,0.00,,,0.25,meteohub,2013-02-11 16:36:00,
2013-02-11 11:41:00,36.1,20.7,28.76,West,270,13.0,15.0,53,0.00,,,0.25,meteohub,2013-02-11 16:41:00,
2013-02-11 11:46:00,36.0,20.5,28.76,SW,225,12.0,15.0,53,0.00,,,0.25,meteohub,2013-02-11 16:46:00,
2013-02-11 11:51:00,36.1,20.7,28.76,WSW,248,8.0,22.0,53,0.00,,,0.25,meteohub,2013-02-11 16:51:00,
2013-02-11 11:56:00,36.3,20.8,28.76,WSW,248,6.0,22.0,53,0.00,,,0.25,meteohub,2013-02-11 16:56:00,
2013-02-11 12:01:00,36.7,20.3,28.76,West,270,11.0,15.0,51,0.00,,,0.25,meteohub,2013-02-11 17:01:00,
2013-02-11 12:06:00,36.9,20.5,28.76,West,270,4.0,13.0,51,0.00,,,0.25,meteohub,2013-02-11 17:06:00,
2013-02-11 12:11:00,36.7,20.3,28.76,WNW,292,14.0,14.0,51,0.00,,,0.25,meteohub,2013-02-11 17:11:00,
2013-02-11 12:16:00,36.3,19.9,28.76,WSW,248,11.0,20.0,51,0.00,,,0.25,meteohub,2013-02-11 17:16:00,
2013-02-11 12:21:00,36.3,19.9,28.76,NW,315,6.0,20.0,51,0.00,,,0.25,meteohub,2013-02-11 17:21:00,
2013-02-11 12:26:00,36.1,20.3,28.76,SW,225,6.0,18.0,52,0.00,,,0.25,meteohub,2013-02-11 17:26:00,
2013-02-11 12:31:00,36.1,20.7,28.76,WNW,292,9.0,18.0,53,0.00,,,0.25,meteohub,2013-02-11 17:31:00,
2013-02-11 12:36:00,36.0,20.5,28.76,SW,225,6.0,21.0,53,0.00,,,0.25,meteohub,2013-02-11 17:36:00,
2013-02-11 12:41:00,36.0,20.5,28.79,SSW,202,6.0,21.0,53,0.00,,,0.25,meteohub,2013-02-11 17:41:00,
2013-02-11 12:46:00,35.8,20.3,28.79,SSW,202,6.0,12.0,53,0.00,,,0.25,meteohub,2013-02-11 17:46:00,
2013-02-11 12:51:00,35.8,20.3,28.79,SE,135,8.0,17.0,53,0.00,,,0.25,meteohub,2013-02-11 17:51:00,
2013-02-11 12:56:00,36.0,20.5,28.79,South,180,5.0,17.0,53,0.00,,,0.25,meteohub,2013-02-11 17:56:00,
2013-02-11 13:01:00,36.3,20.5,28.76,SSE,158,8.0,17.0,52,0.00,,,0.25,meteohub,2013-02-11 18:01:00,
2013-02-11 13:06:00,36.9,21.4,28.76,West,270,20.0,20.0,53,0.00,,,0.25,meteohub,2013-02-11 18:06:00,
2013-02-11 13:11:00,36.9,19.9,28.76,West,270,10.0,20.0,50,0.00,,,0.25,meteohub,2013-02-11 18:11:00,
2013-02-11 13:16:00,36.7,19.8,28.76,West,270,11.0,20.0,50,0.00,,,0.25,meteohub,2013-02-11 18:16:00,
2013-02-11 13:21:00,36.3,19.6,28.76,WNW,292,13.0,20.0,50,0.00,,,0.25,meteohub,2013-02-11 18:21:00,
2013-02-11 13:26:00,36.3,19.6,28.79,West,270,6.0,17.0,50,0.00,,,0.25,meteohub,2013-02-11 18:26:00,
2013-02-11 13:31:00,36.1,19.4,28.79,South,180,6.0,22.0,50,0.00,,,0.25,meteohub,2013-02-11 18:31:00,
2013-02-11 13:36:00,36.1,19.4,28.79,WSW,248,7.0,22.0,50,0.00,,,0.25,meteohub,2013-02-11 18:36:00,
2013-02-11 13:41:00,36.3,19.6,28.79,West,270,6.0,17.0,50,0.00,,,0.25,meteohub,2013-02-11 18:41:00,
2013-02-11 13:46:00,36.1,19.4,28.79,SW,225,8.0,17.0,50,0.00,,,0.25,meteohub,2013-02-11 18:46:00,
2013-02-11 13:51:00,36.0,19.2,28.79,West,270,9.0,13.0,50,0.00,,,0.25,meteohub,2013-02-11 18:51:00,
2013-02-11 13:56:00,36.1,19.4,28.79,SSW,202,5.0,20.0,50,0.00,,,0.25,meteohub,2013-02-11 18:56:00,
2013-02-11 14:01:00,36.1,19.4,28.79,WNW,292,10.0,20.0,50,0.00,,,0.25,meteohub,2013-02-11 19:01:00,
2013-02-11 14:06:00,36.1,19.8,28.79,SW,225,10.0,22.0,51,0.00,,,0.25,meteohub,2013-02-11 19:06:00,
2013-02-11 14:12:00,36.1,19.4,28.79,West,270,12.0,22.0,50,0.00,,,0.25,meteohub,2013-02-11 19:12:00,
2013-02-11 14:17:00,36.1,19.8,28.79,WSW,248,8.0,20.0,51,0.00,,,0.25,meteohub,2013-02-11 19:17:00,
2013-02-11 14:22:00,36.0,19.6,28.79,WNW,292,10.0,20.0,51,0.00,,,0.25,meteohub,2013-02-11 19:22:00,
2013-02-11 14:27:00,36.1,19.8,28.79,WNW,292,17.0,19.0,51,0.00,,,0.25,meteohub,2013-02-11 19:27:00,
2013-02-11 14:32:00,36.0,19.6,28.79,SW,225,6.0,19.0,51,0.00,,,0.25,meteohub,2013-02-11 19:32:00,
2013-02-11 14:37:00,36.0,19.6,28.79,WSW,248,6.0,17.0,51,0.00,,,0.25,meteohub,2013-02-11 19:37:00,
2013-02-11 14:42:00,35.8,19.4,28.79,SW,225,14.0,17.0,51,0.00,,,0.25,meteohub,2013-02-11 19:42:00,
2013-02-11 14:47:00,35.8,19.4,28.79,SW,225,8.0,23.0,51,0.00,,,0.25,meteohub,2013-02-11 19:47:00,
2013-02-11 14:52:00,35.8,19.4,28.79,NW,315,7.0,23.0,51,0.00,,,0.25,meteohub,2013-02-11 19:52:00,
2013-02-11 14:57:00,35.8,19.4,28.79,WSW,248,6.0,23.0,51,0.00,,,0.25,meteohub,2013-02-11 19:57:00,
2013-02-11 15:02:00,35.8,19.9,28.79,SW,225,9.0,15.0,52,0.00,,,0.25,meteohub,2013-02-11 20:02:00,
2013-02-11 15:07:00,35.8,19.9,28.79,SW,225,9.0,15.0,52,0.00,,,0.25,meteohub,2013-02-11 20:07:00,
2013-02-11 15:25:00,35.4,20.1,28.79,North,-999,-999.0,-999.0,53,0.00,,,0.25,meteohub,2013-02-11 20:25:00,
2013-02-11 15:30:00,35.4,20.1,28.79,NW,315,6.0,-999.0,53,0.00,,,0.25,meteohub,2013-02-11 20:30:00,
2013-02-11 15:35:00,35.4,20.5,28.79,WSW,248,9.0,9.0,54,0.00,,,0.25,meteohub,2013-02-11 20:35:00,
2013-02-11 15:40:00,35.4,20.1,28.79,WSW,248,13.0,13.0,53,0.00,,,0.25,meteohub,2013-02-11 20:40:00,
2013-02-11 15:45:00,35.4,20.1,28.79,WSW,248,13.0,13.0,53,0.00,,,0.25,meteohub,2013-02-11 20:45:00,
2013-02-11 16:02:00,35.2,20.3,28.82,WNW,292,11.0,15.0,54,0.00,,,0.25,meteohub,2013-02-11 21:02:00,
2013-02-11 16:07:00,35.1,20.1,28.82,SW,225,8.0,15.0,54,0.00,,,0.25,meteohub,2013-02-11 21:07:00,
2013-02-11 16:12:00,35.1,20.5,28.82,West,270,13.0,15.0,55,0.00,,,0.25,meteohub,2013-02-11 21:12:00,
2013-02-11 16:17:00,34.9,20.8,28.82,West,270,11.0,17.0,56,0.00,,,0.25,meteohub,2013-02-11 21:17:00,
2013-02-11 16:22:00,34.9,20.8,28.82,West,270,7.0,17.0,56,0.00,,,0.25,meteohub,2013-02-11 21:22:00,
2013-02-11 16:27:00,34.9,20.8,28.82,SW,225,8.0,17.0,56,0.00,,,0.25,meteohub,2013-02-11 21:27:00,
2013-02-11 16:32:00,34.9,21.2,28.82,West,270,8.0,15.0,57,0.00,,,0.25,meteohub,2013-02-11 21:32:00,
2013-02-11 16:37:00,34.7,21.0,28.82,West,270,3.0,15.0,57,0.00,,,0.25,meteohub,2013-02-11 21:37:00,
2013-02-11 16:42:00,34.7,21.0,28.82,SW,225,5.0,15.0,57,0.00,,,0.25,meteohub,2013-02-11 21:42:00,
2013-02-11 16:47:00,34.5,20.8,28.82,West,270,12.0,16.0,57,0.00,,,0.25,meteohub,2013-02-11 21:47:00,
2013-02-11 16:52:00,34.5,21.4,28.82,SSW,202,6.0,18.0,58,0.00,,,0.25,meteohub,2013-02-11 21:52:00,
2013-02-11 16:57:00,34.5,20.8,28.85,SW,225,11.0,18.0,57,0.00,,,0.25,meteohub,2013-02-11 21:57:00,
2013-02-11 17:02:00,34.5,20.8,28.85,West,270,8.0,12.0,57,0.00,,,0.25,meteohub,2013-02-11 22:02:00,
2013-02-11 17:07:00,34.5,21.4,28.85,SW,225,7.0,13.0,58,0.00,,,0.25,meteohub,2013-02-11 22:07:00,
2013-02-11 17:12:00,34.5,20.8,28.85,WSW,248,10.0,16.0,57,0.00,,,0.25,meteohub,2013-02-11 22:12:00,
2013-02-11 17:17:00,34.5,21.4,28.85,WNW,292,8.0,21.0,58,0.00,,,0.25,meteohub,2013-02-11 22:17:00,
2013-02-11 17:22:00,34.5,20.8,28.85,West,270,14.0,21.0,57,0.00,,,0.25,meteohub,2013-02-11 22:22:00,
2013-02-11 17:27:00,34.5,21.4,28.85,SW,225,5.0,19.0,58,0.00,,,0.25,meteohub,2013-02-11 22:27:00,
2013-02-11 17:33:00,34.5,21.4,28.85,WSW,248,4.0,19.0,58,0.00,,,0.25,meteohub,2013-02-11 22:33:00,
2013-02-11 17:38:00,34.3,21.2,28.85,South,180,5.0,14.0,58,0.00,,,0.25,meteohub,2013-02-11 22:38:00,
2013-02-11 17:43:00,34.3,21.2,28.88,WNW,292,11.0,12.0,58,0.00,,,0.25,meteohub,2013-02-11 22:43:00,
2013-02-11 17:48:00,34.3,21.6,28.88,West,270,6.0,15.0,59,0.00,,,0.25,meteohub,2013-02-11 22:48:00,
2013-02-11 17:53:00,34.3,21.6,28.88,SW,225,10.0,16.0,59,0.00,,,0.25,meteohub,2013-02-11 22:53:00,
2013-02-11 17:58:00,34.3,21.6,28.88,West,270,4.0,16.0,59,0.00,,,0.25,meteohub,2013-02-11 22:58:00,
2013-02-11 18:03:00,34.3,21.6,28.88,SW,225,9.0,16.0,59,0.00,,,0.25,meteohub,2013-02-11 23:03:00,
2013-02-11 18:08:00,34.3,21.9,28.88,SSW,202,6.0,15.0,60,0.00,,,0.25,meteohub,2013-02-11 23:08:00,
2013-02-11 18:13:00,34.2,21.7,28.88,WNW,292,8.0,22.0,60,0.00,,,0.25,meteohub,2013-02-11 23:13:00,
2013-02-11 18:18:00,34.2,21.7,28.88,NW,315,6.0,22.0,60,0.00,,,0.25,meteohub,2013-02-11 23:18:00,
2013-02-11 18:23:00,34.2,22.1,28.88,SW,225,9.0,22.0,61,0.00,,,0.25,meteohub,2013-02-11 23:23:00,
2013-02-11 18:28:00,34.2,21.7,28.88,WSW,248,5.0,13.0,60,0.00,,,0.25,meteohub,2013-02-11 23:28:00,
2013-02-11 18:33:00,34.2,22.1,28.88,WSW,248,11.0,13.0,61,0.00,,,0.25,meteohub,2013-02-11 23:33:00,
2013-02-11 18:38:00,34.2,22.1,28.88,SW,225,8.0,14.0,61,0.00,,,0.25,meteohub,2013-02-11 23:38:00,
2013-02-11 18:43:00,34.2,22.1,28.91,WSW,248,14.0,15.0,61,0.00,,,0.25,meteohub,2013-02-11 23:43:00,
2013-02-11 18:48:00,34.0,21.9,28.91,WSW,248,11.0,15.0,61,0.00,,,0.25,meteohub,2013-02-11 23:48:00,
2013-02-11 18:53:00,34.0,21.9,28.91,West,270,8.0,15.0,61,0.00,,,0.25,meteohub,2013-02-11 23:53:00,
2013-02-11 18:58:00,34.0,21.9,28.91,WNW,292,15.0,16.0,61,0.00,,,0.25,meteohub,2013-02-11 23:58:00,
2013-02-11 19:03:00,34.0,21.9,28.91,South,180,7.0,17.0,61,0.00,,,0.25,meteohub,2013-02-12 00:03:00,
2013-02-11 19:08:00,34.0,22.3,28.91,West,270,14.0,17.0,62,0.00,,,0.25,meteohub,2013-02-12 00:08:00,
2013-02-11 19:13:00,34.0,22.3,28.94,SW,225,8.0,17.0,62,0.00,,,0.25,meteohub,2013-02-12 00:13:00,
2013-02-11 19:18:00,34.0,22.3,28.94,NNW,338,5.0,17.0,62,0.00,,,0.25,meteohub,2013-02-12 00:18:00,
2013-02-11 19:23:00,34.0,22.3,28.94,West,270,10.0,17.0,62,0.00,,,0.25,meteohub,2013-02-12 00:23:00,
2013-02-11 19:28:00,34.0,22.3,28.94,WSW,248,5.0,17.0,62,0.00,,,0.25,meteohub,2013-02-12 00:28:00,
2013-02-11 19:33:00,33.8,22.6,28.94,West,270,13.0,13.0,63,0.00,,,0.25,meteohub,2013-02-12 00:33:00,
2013-02-11 19:38:00,33.8,22.6,28.94,WSW,248,4.0,13.0,63,0.00,,,0.25,meteohub,2013-02-12 00:38:00,
2013-02-11 19:43:00,33.8,21.7,28.94,West,270,12.0,13.0,61,0.00,,,0.25,meteohub,2013-02-12 00:43:00,
2013-02-11 19:48:00,33.8,21.7,28.94,West,270,6.0,13.0,61,0.00,,,0.25,meteohub,2013-02-12 00:48:00,
2013-02-11 19:53:00,33.8,21.4,28.94,West,270,5.0,17.0,60,0.00,,,0.25,meteohub,2013-02-12 00:53:00,
2013-02-11 19:58:00,33.8,21.4,28.97,WSW,248,6.0,19.0,60,0.00,,,0.25,meteohub,2013-02-12 00:58:00,
2013-02-11 20:03:00,33.8,20.3,28.97,SSW,202,13.0,19.0,57,0.00,,,0.25,meteohub,2013-02-12 01:03:00,
2013-02-11 20:08:00,33.8,20.7,28.97,West,270,9.0,19.0,58,0.00,,,0.25,meteohub,2013-02-12 01:08:00,
2013-02-11 20:13:00,33.8,20.7,28.91,SW,225,3.0,16.0,58,0.00,,,0.25,meteohub,2013-02-12 01:13:00,
2013-02-11 20:18:00,33.8,21.0,28.91,West,270,9.0,16.0,59,0.00,,,0.25,meteohub,2013-02-12 01:18:00,
2013-02-11 20:23:00,33.6,20.8,28.91,SSW,202,8.0,12.0,59,0.00,,,0.25,meteohub,2013-02-12 01:23:00,
2013-02-11 20:28:00,33.6,20.5,28.94,WNW,292,12.0,12.0,58,0.00,,,0.25,meteohub,2013-02-12 01:28:00,
2013-02-11 20:33:00,33.6,20.5,28.94,West,270,10.0,12.0,58,0.00,,,0.25,meteohub,2013-02-12 01:33:00,
2013-02-11 20:39:00,33.6,20.5,28.94,SW,225,6.0,13.0,58,0.00,,,0.25,meteohub,2013-02-12 01:39:00,
2013-02-11 20:44:00,33.4,20.3,28.94,WSW,248,10.0,13.0,58,0.00,,,0.25,meteohub,2013-02-12 01:44:00,
2013-02-11 20:49:00,33.4,20.3,28.94,WSW,248,13.0,15.0,58,0.00,,,0.25,meteohub,2013-02-12 01:49:00,
2013-02-11 20:54:00,33.3,19.8,28.94,WSW,248,14.0,18.0,57,0.00,,,0.25,meteohub,2013-02-12 01:54:00,
2013-02-11 20:59:00,33.3,20.1,28.94,WSW,248,9.0,18.0,58,0.00,,,0.25,meteohub,2013-02-12 01:59:00,
2013-02-11 21:04:00,33.3,20.5,28.94,West,270,6.0,19.0,59,0.00,,,0.25,meteohub,2013-02-12 02:04:00,
2013-02-11 21:09:00,33.1,20.3,28.94,SW,225,11.0,19.0,59,0.00,,,0.25,meteohub,2013-02-12 02:09:00,
2013-02-11 21:14:00,33.1,20.3,28.94,WNW,292,13.0,17.0,59,0.00,,,0.25,meteohub,2013-02-12 02:14:00,
2013-02-11 21:19:00,33.1,20.7,28.94,West,270,6.0,17.0,60,0.00,,,0.25,meteohub,2013-02-12 02:19:00,
2013-02-11 21:24:00,33.1,20.7,28.94,WSW,248,4.0,13.0,60,0.00,,,0.25,meteohub,2013-02-12 02:24:00,
2013-02-11 21:29:00,33.1,20.7,28.97,WSW,248,17.0,17.0,60,0.00,,,0.25,meteohub,2013-02-12 02:29:00,
2013-02-11 21:34:00,32.9,20.7,28.97,West,270,12.0,17.0,60,0.00,,,0.25,meteohub,2013-02-12 02:34:00,
2013-02-11 21:39:00,32.9,21.0,28.94,West,270,9.0,17.0,61,0.00,,,0.25,meteohub,2013-02-12 02:39:00,
2013-02-11 21:44:00,32.7,20.8,28.94,West,270,6.0,17.0,61,0.00,,,0.25,meteohub,2013-02-12 02:44:00,
2013-02-11 21:49:00,32.7,21.2,28.94,West,270,12.0,13.0,62,0.00,,,0.25,meteohub,2013-02-12 02:49:00,
2013-02-11 21:54:00,32.7,20.8,28.97,West,270,22.0,22.0,61,0.00,,,0.25,meteohub,2013-02-12 02:54:00,
2013-02-11 21:59:00,32.7,20.8,28.97,SSE,158,10.0,22.0,61,0.00,,,0.25,meteohub,2013-02-12 02:59:00,
2013-02-11 22:04:00,32.5,20.7,28.97,WSW,248,9.0,22.0,61,0.00,,,0.25,meteohub,2013-02-12 03:04:00,
2013-02-11 22:09:00,32.5,20.7,28.97,West,270,4.0,22.0,61,0.00,,,0.25,meteohub,2013-02-12 03:09:00,
2013-02-11 22:14:00,32.5,21.4,28.97,West,270,19.0,19.0,63,0.00,,,0.25,meteohub,2013-02-12 03:14:00,
2013-02-11 22:19:00,32.5,21.4,28.97,NW,315,13.0,20.0,63,0.00,,,0.25,meteohub,2013-02-12 03:19:00,
2013-02-11 22:24:00,32.5,21.4,28.97,West,270,6.0,20.0,63,0.00,,,0.25,meteohub,2013-02-12 03:24:00,
2013-02-11 22:29:00,32.5,21.4,28.97,WSW,248,8.0,19.0,63,0.00,,,0.25,meteohub,2013-02-12 03:29:00,
2013-02-11 22:34:00,32.4,21.6,28.97,WSW,248,9.0,15.0,64,0.00,,,0.25,meteohub,2013-02-12 03:34:00,
2013-02-11 22:39:00,32.4,21.6,28.97,West,270,9.0,13.0,64,0.00,,,0.25,meteohub,2013-02-12 03:39:00,
2013-02-11 22:44:00,32.4,21.9,29.00,WSW,248,6.0,13.0,65,0.00,,,0.25,meteohub,2013-02-12 03:44:00,
2013-02-11 22:49:00,32.4,21.9,29.00,West,270,5.0,13.0,65,0.00,,,0.25,meteohub,2013-02-12 03:49:00,
2013-02-11 22:54:00,32.4,22.3,29.00,West,270,6.0,13.0,66,0.00,,,0.25,meteohub,2013-02-12 03:54:00,
2013-02-11 22:59:00,32.2,22.1,29.00,West,270,9.0,13.0,66,0.00,,,0.25,meteohub,2013-02-12 03:59:00,
2013-02-11 23:04:00,32.2,22.1,29.00,WNW,292,7.0,13.0,66,0.00,,,0.25,meteohub,2013-02-12 04:04:00,
2013-02-11 23:09:00,32.2,22.1,29.00,South,180,13.0,18.0,66,0.00,,,0.25,meteohub,2013-02-12 04:09:00,
2013-02-11 23:14:00,32.2,22.1,29.00,West,270,3.0,18.0,66,0.00,,,0.25,meteohub,2013-02-12 04:14:00,
2013-02-11 23:19:00,32.2,22.1,29.00,WNW,292,4.0,23.0,66,0.00,,,0.25,meteohub,2013-02-12 04:19:00,
2013-02-11 23:24:00,32.2,22.1,29.00,WNW,292,9.0,23.0,66,0.00,,,0.25,meteohub,2013-02-12 04:24:00,
2013-02-11 23:29:00,32.2,22.1,29.00,WNW,292,6.0,23.0,66,0.00,,,0.25,meteohub,2013-02-12 04:29:00,
2013-02-11 23:34:00,32.2,21.7,29.00,WSW,248,14.0,14.0,65,0.00,,,0.25,meteohub,2013-02-12 04:34:00,
2013-02-11 23:39:00,32.2,21.7,29.00,WSW,248,7.0,14.0,65,0.00,,,0.25,meteohub,2013-02-12 04:39:00,
2013-02-11 23:44:00,32.2,22.1,29.00,West,270,10.0,14.0,66,0.00,,,0.25,meteohub,2013-02-12 04:44:00,
2013-02-11 23:49:00,32.2,22.1,29.00,WNW,292,12.0,14.0,66,0.00,,,0.25,meteohub,2013-02-12 04:49:00,
2013-02-11 23:54:00,32.2,22.1,29.00,West,270,6.0,12.0,66,0.00,,,0.25,meteohub,2013-02-12 04:54:00,
2013-02-11 23:59:00,32.2,22.1,29.00,WSW,248,4.0,13.0,66,0.00,,,0.25,meteohub,2013-02-12 04:59:00,